Погода в Брянске

Погода в Брянске : погода сейчас, прогноз погоды и архив. Всё, что Вы хотите узнать о погоде в Брянске!

Поиск расширенной информации на нашем сайте:

Другие новости

Новости СМИ2

Главная страница сайта

Новости сайта

03.07.2017

Напоминаем, что на нашем специализированном сайте Метеоцентр.Азия вы можете получить высокодетализированные автоматические прогнозы погоды по пунктам России, СНГ и мира в авиационном формате (включающие направление и скорость ветра, видимость, явления погоды, количество и форму облачности, нижнюю и верхнюю границу облачности).


Погода в Брянске - сегодня

Время (UTC), дата Ветер
(°,м/с) 
Видим.   Явления Облачность Т
(°С)
Тd
(°С)
f(%) Тe
(°С)
Pmin
(гПа)
dP
(гПа)
Po
(мм)
O2
(г/м3)
Тmin Tmax R s Состояние
почвы
12 20.10.17 310 (СЗ) 20000 м    8/4 600 м верхняя 
[Sc diur, vesp|Ci fib]
+9.7 -0.7 48 +9  1022.7  -0.8  747  291           
15 20.10.17 300 (СЗ) 20000 м    8/4 600 м верхняя 
[Sc diur, vesp|Ci fib]
+5.7 -1.3 61 +7  1023  -0.2  747  295           
18 20.10.17 тихо ()   10 км    ясно 
+2 -1.1 80 +2  1023.7  0.4  748  299    +9.7       
21 20.10.17 тихо ()   4000 м  дымка  ясно 
+0.5 -0.9 90 +1  1023.6  -0.3  747  301           
00 21.10.17 тихо ()   4000 м  дымка  6/0 средняя 
[Ac trans]
-0.6 -1.5 94 -1  1023.3  -0.5  747  302           
03 21.10.17 300 (СЗ) 4000 м  дымка  8/0 средняя 
[Ac trans]
+1.4 -0.3 88 +2  1022.3  -0.7  746  299  -0.9         
06 21.10.17 320 (СЗ) 12000 м    8/0 средняя 
[Ac trans]
+2 -0.8 82 +1  1021.9  -0.3  746  299  -0.9         
09 21.10.17 060 (СВ) 20000 м    8/6 1050 м средняя 
[Sc|Ac trans]
+4.7 -0.7 68 +4  1021.7  746  296           
12 21.10.17 тихо ()   20000 м    6/0 средняя, верхняя 
[Ac trans|Ci fib]
+6.2 -1.6 57 +6  1019.9  -1.6  745  294           
15 21.10.17 тихо ()   20000 м    8/6 930 м средняя 
[Sc|Ac trans]
+2.8 -2 71 +3  1019.3  -0.8  744  297           
18 21.10.17 тихо ()   10 км    8/0 средняя 
[Ac trans]
-0.6 -2.7 86 -1  1019.5  -0.2  744  301    +6.5       
21 21.10.17 050 (СВ) 10 км    9/0 средняя 
[Ac trans]
+1.4 -1.8 79 +1  1019.3  0.1  744  299           
00 22.10.17 050 (СВ) 10 км    10/0 средняя 
[Ac und]
+1.2 -1.1 85 1019.3  744  299           
03 22.10.17 030 (СВ) 4000 м  дымка  4/0 верхняя 
[Ci fib]
-0.6 -2.4 88 -2  1020  0.4  745  301  -0.6         
06 22.10.17 020 (С) 11000 м    3/0 средняя 
[Ac trans]
-0.3 -2.7 84 1021.1  0.9  745  301  -1.7         
09 22.10.17 010 (С) 20000 м    9/9 960 м 
[Sc]
+1.5 -5.5 60 1021.6  0.8  746  299           
12 22.10.17 330 (СЗ) 20000 м    4/4 600 м 
[Sc]
+3.1 -6.1 51 +3  1020.8  -0.5  746  298           
15 22.10.17 тихо ()   20000 м    ясно 
-0.3 -5.8 66 -0  1021.2  -0.2  745  301           
18 22.10.17 250 (З) 10 км    ясно 
-1.3 -6.4 68 -1  1021.7  0.4  746  303    +4       
21 22.10.17 тихо ()   4000 м  дымка  ясно 
-4.7 -6 91 -5  1022  0.1  746  306           
00 23.10.17 230 (ЮЗ) 10 км    ясно 
-2.5 -6.5 74 -2  1021.9  746  304           
03 23.10.17 220 (ЮЗ) 4000 м  дымка  9/9 1260 м 
[Sc]
-4.4 -5.7 91 -4  1022.4  0.4  746  306  -5.8         
06 23.10.17 тихо ()   9000 м  дымка  10/10 1300 м 
[Sc]
-1.5 -3.2 88 -2  1022.4  0.2  746  303  -5.8         
09 23.10.17 020 (С) 20000 м    10/10 1300 м 
[Sc]
+2.2 -5.3 58 +3  1022.5  0.6  747  299           
12 23.10.17 350 (С) 20000 м    8/4 600 м средняя, верхняя 
[Cu med, cong|Ac trans|Ci fib]
+3 -6.2 51 +4  1023  0.5  747  298           
Время (UTC), дата Ветер
(°,м/с) 
Видим.   Явления Облачность Т
(°С)
Тd
(°С)
f(%) Тe
(°С)
Pmin
(гПа)
dP
(гПа)
Po
(мм)
O2
(г/м3)
Тmin Tmax R s Состояние
почвы

Для получения пояснительной информации подведите курсор к названию столбца.

ПОГОДА в Брянске - архив

Всё, что Вы хотите узнать о погоде в Брянске - удобно и подробно!

Выберите нужную дату (начиная с 1 января 2015* года) и нажмите кнопку "Найти".
Будут отображены архивные сводки погоды по пункту Брянск, начиная с указанной даты.


Отображать данные в формате CSV (для использования в таблицах Excel)


Внимание! Наш архив погоды предназначен исключительно для личного некоммерческого использования в познавательных целях. Если Вам необходимы официальные справки о состоянии погоды (для производственных, юридических, коммерческих и т.п. целей), обращайтесь в органы Росгидромета.

*Примечание: данная дата относится к архиву по метеостанциям СССР (Россия, СНГ, Балтия).
Архив по метеостанциям Зарубежной Европы и Азии (кроме Китая) хранится 10 дней, по другим регионам земного шара (Китай, Африка, Америка, Австралия, Океания) - 1 день.

Брянск - район местоположения метеостанции


Название, широта, долгота, высота метеостанции:
Брянск (город) 53.2°ш. 34.3°д. 216 м над ур. моря [Российская Федерация]

Дополнительная информация

В oтличие oт бoльшинства пoгoдных сайтoв мы публикуем пoдрoбную метеoинфoрмацию в детальнoм прoфессиoнальнoм фoрмате.

Характеристики температуры и влажнoсти вoздуха измеряются на высoте 2 м в тени вдали oт зданий и деревьев.
Скoрoсть ветра измеряется на высoте 10 м (на урoвне рoста челoвека скoрoсть ветра ниже в 1.5-2 раза). Если метеoстанция нахoдится в гoрoде или в лесу, тo скoрoсть ветра занижена на 2-4 м/с пo сравнению с oткрытым местoм. Скoрoсть ветра над акватoриями крупных рек и oзёр, а также на вершинах хoлмoв на 2-5 м/с выше, чем в oбычных услoвиях.
Атмoсфернoе давление в разных тoчках местнoсти мoжет значительнo oтличаться oт давления на метеoстанции, в зависимoсти oт услoвий рельефа (при пoдъёме на 10 м давление пoнижается примернo на 1 мм рт.ст.).